Regional Weather Roundup
Issued by NWS Bismarck, ND

Home | Current Version | Previous Version | Text Only | Print | Product List | Glossary On
Versions: 1 2 3 4 5 6 7 8 9 10 11 12 13 14 15 16 17 18 19 20 21 22 23 24 25 26 27 28 29 30 31 32 33 34 35 36 37 38 39 40 41 42 43 44 45 46 47 48 49 50
409
ASUS43 KBIS 262010
RWRBIS

NWR BROADCAST TEXT
NATIONAL WEATHER SERVICE BISMARCK ND
300 PM CDT THU MAY 26 2016

NOTE: "FAIR" INDICATES FEW OR NO CLOUDS BELOW 12,000 FEET WITH NO
SIGNIFICANT WEATHER AND/OR OBSTRUCTIONS TO VISIBILITY.


CITY           SKY/WX    TMP DP  RH WIND       PRES   REMARKS
WILLISTON      PTSUNNY   66  48  52 VRB6      29.79F
MINOT          PTSUNNY   68  54  60 N6        29.79S
MINOT AFB      PTSUNNY   63  54  72 NE5       29.79S
BISMARCK       PTSUNNY   71  47  42 SW9       29.79F
DICKINSON      FAIR      63  40  42 NW8G18    29.81F
GARRISON         N/A     69  47  45 CALM      29.78F
HETTINGER ARPT CLOUDY    65  41  41 W14G22    29.85F
JAMESTOWN      FAIR      72  53  51 W14G24    29.79S
BEACH          MOCLDY    59  41  51 NW20G29   29.87S
CARRINGTON     FAIR      70  50  49 W20       29.81S
HAZEN          MOCLDY    66  46  48 S9        29.80F
LINTON         MOCLDY    72  54  53 SW16        N/A
MANDAN         MOCLDY    68  46  45 W8        29.80S
OAKES            N/A    N/A N/A N/A MISG        N/A
RUGBY          MOCLDY    63  52  67 N7        29.79R
STANLEY        MOCLDY    63  57  82 N9        29.82S
WATFORD CITY   FAIR      57  52  82 NE5       29.81F
$$

CITY           SKY/WX    TMP DP  RH WIND       PRES   REMARKS
GRAND FORKS    CLOUDY    69  57  65 W13       29.74F
GRAND FORKS AF PTSUNNY   68  56  65 W10G22    29.75S
DEVILS LAKE    PTSUNNY   65  55  70 W13       29.78S
FARGO          FAIR      73  55  53 W17G24    29.79S
CAVALIER       MOCLDY    66  57  72 NW13G18   29.72S
GRAFTON        CLOUDY    66  57  72 SW17      29.74S
GWINNER        FAIR      75  54  46 SW18      29.80F
LANGDON        CLOUDY    63  57  82 NW16      29.75S
ROLLA          CLOUDY    57  54  88 N16G22    29.79R
WALHALLA       FAIR      63  63 100 W12G17    29.72S
$$

CITY           SKY/WX    TMP DP  RH WIND       PRES   REMARKS
ABERDEEN       FAIR      76  51  41 SW13G21   29.83F
MOBRIDGE       FAIR      75  52  44 S15       29.79F
BUFFALO          N/A     67  41  38 W16       29.80F
RAPID CITY     PTSUNNY   69  45  41 VRB7      29.87F
GLASGOW        CLOUDY    56  53  90 NW16      29.83S
SIDNEY         CLOUDY    64  48  56 W14       29.79F
WOLF POINT     PTSUNNY   62  51  67 W10       29.82S
GLENDIVE       CLOUDY    61  48  63 NW13      29.84F
MILES CITY     TSTM      57  46  66 W16G26    29.86R
BAKER          CLOUDY    56  45  66 W13       29.87R
$$

CITY           SKY/WX    TMP DP  RH WIND       PRES   REMARKS
BILLINGS       PTSUNNY   63  40  42 W21G31    29.92R
GREAT FALLS    FAIR      62  48  60 CALM      29.94F
REGINA         LGT RAIN  59  54  82 NE7       29.88F
ESTEVAN        LGT RAIN  57  55  94 NE14      29.83S FOG
$$





USA.gov is the U.S. government's official web portal to all federal, state and local government web resources and services.